User: anonymous   Login
Location: Unspecified
(0.0000°N, 0.0000°E)
Time: 15:03:05
(UTC+00:00)
Language:

CZ-3B DEB - Orbit

View from above orbital plane
View from above orbital plane
View from above satellite
View from above satellite

Ground track
Ground track

The orbit is defined by the following mean orbital elements,

1 48546U 11077AS  24320.24161708  .00000073  00000-0  20970-1 0  9992
2 48546  20.1388 185.0298 7366554 218.5572  54.2335  1.85903440 30874
Epoch (UTC): 15 November 2024 05:47:55
Eccentricity: 0.7366554
inclination: 20.1388°
perigee height: 979 km
apogee height: 42142 km
right ascension of ascending node: 185.0298°
argument of perigee: 218.5572°
revolutions per day: 1.85903440
mean anomaly at epoch: 54.2335°

The dashed part of the orbit path shows where the satellite is in the earth's shadow,  

DLR